Location: �clusier
(49.9361°N, 2.7869°E)
Time: 08:18:08
(UTC+00:00)

Cosmos 1992 Rocket - Pass Details

Date: 16 June 2021
Orbit: 758 x 766 km, 74.0° (Epoch: 31 July)

Event Time Altitude Azimuth Distance (km) Brightness Sun altitude
Exits shadow 22:32:33 23° 167° (SSE) 1,586 5.0 -14.7°
Maximum altitude 22:35:29 46° 105° (ESE) 1,020 4.4 -14.9°
Drops below altitude 10° 22:40:28 10° 34° (NE) 2,309 7.0 -15.1°
Sets 22:42:55 0° 28° (NNE) 3,241 8.0 -15.2°
